sat.trackr.live / text

‹ back to catalog

STARLINK-32192

NORAD 60316 · 2024-133R

PAYLOAD ACTIVE UNKNOWN

§ Identity

Operator
Country
US
Launch date
2024-07-28
Launch site
AFWTR
Launch vehicle
Mass (kg)
RCS (m²)

Purposes: comms

External: N2YO · Heavens-Above · Gunter

§ Orbital elements

Epoch: 2026-09-21T20:27:09.097632Z

Period
93.85 min
Inclination
53.1586°
Eccentricity
0.0001033
Mean motion
15.34378130 rev/d
Perigee alt
462.1 km
Apogee alt
463.5 km
Semi-major
6,840.9 km
B*
6.2390e-5
RAAN
103.0749°
Arg perigee
98.3505°
Mean anomaly
261.7615°
Rev number
12,180

§ Raw data

STARLINK-321921 60316U 24133R   26264.85218863  .00001731  00000+0  62390-4 0  99952 60316  53.1586 103.0749 0001033  98.3505 261.7615 15.34378130121802

JSON: /api/v1/satellites/60316 · /tle

For live sub-satellite position, see the globe view (requires WebGL).

§ Visibility from observer

Set your observer location to see the next 7 days of passes ≥ 10°. The values pass through the URL so the page stays shareable.

No JS? Fill the form by hand. The geolocation button needs JavaScript.